Flag for U.S.A. Weather past 2 weeks in Miami, Florida, U.S.A.

Now
79 °F

Clear.


Feels Like: 83 °F
Forecast: 79 / 90 °F
Wind: No wind

Location: Miami International Airport

Current Time: Jul 28, 2015 at 4:35:34 AM

Latest Report: Jul 28, 2015 at 3:53 AM


Visibility: 9 mi

Pressure: 29.98 "Hg

Humidity: 88%

Dew point: 75 °F

Location of MiamiLocation

Historic Weather in Miami — Graph

°F

Miami temperature yesterday

Maximum temperature yesterday: 93 °F (at 1:53 PM)
Minimum temperature yesterday: 77 °F (at 3:53 AM)
Average temperature yesterday: 85 °F

Past Weeks' High & Low Weather Summary

 TemperatureHumidityPressure
High94 °F (Jul 24, 2:53 PM)90% (Jul 25, 9:53 PM)30.09 "Hg (Jul 25, 9:53 PM)
Low75 °F (Jul 25, 5:53 PM)40% (Jul 13, 12:53 PM)29.89 "Hg (Jul 26, 4:53 AM)
Average83 °F71%30.01 "Hg
* Reported Jul 13 2:53 AM — Jul 28 2:53 AM, Miami, Weather by CustomWeather, © 2015

Note: Actual official high and low records may vary slightly from our data, if they occured in-between our weather recording intervals... More about our weather records

Advertising

Miami weather history for previous 24 hours

 ConditionsComfort  
Time TempWeatherWind HumidityBarometerVisibility
2:53 AM
Tue, Jul 28
80 °FPassing clouds.5 mph81%29.99 "Hg9 mi
1:53 AM81 °FPassing clouds.3 mph82%30.00 "Hg10 mi
12:53 AM82 °FPassing clouds.No wind79%30.01 "Hg10 mi
11:53 PM
Mon, Jul 27
83 °FPassing clouds.3 mph77%30.02 "Hg9 mi
10:53 PM83 °FPassing clouds.5 mph74%30.03 "Hg10 mi
9:53 PM85 °FPassing clouds.5 mph68%30.02 "Hg10 mi
8:53 PM86 °FScattered clouds.7 mph63%30.00 "Hg10 mi
7:53 PM87 °FScattered clouds.7 mph63%29.99 "Hg10 mi
6:53 PM90 °FScattered clouds.10 mph56%29.98 "Hg10 mi
4:53 PM90 °FBroken clouds.12 mph56%29.97 "Hg10 mi
3:53 PM91 °FBroken clouds.10 mph57%29.97 "Hg10 mi
2:53 PM92 °FBroken clouds.13 mph49%29.98 "Hg10 mi
1:53 PM93 °FBroken clouds.14 mph49%30.00 "Hg10 mi
12:53 PM91 °FBroken clouds.14 mph57%30.01 "Hg10 mi
11:53 AM90 °FBroken clouds.14 mph56%30.02 "Hg10 mi
10:53 AM89 °FPartly sunny.13 mph61%30.01 "Hg10 mi
9:53 AM86 °FPartly sunny.13 mph70%30.01 "Hg10 mi
8:53 AM85 °FPassing clouds.7 mph75%29.99 "Hg10 mi
7:53 AM81 °FScattered clouds.7 mph82%29.98 "Hg10 mi
6:53 AM78 °FPassing clouds.5 mph87%29.96 "Hg10 mi
5:53 AM77 °FPassing clouds.3 mph90%29.95 "Hg10 mi
4:53 AM77 °FPassing clouds.5 mph88%29.95 "Hg10 mi
Weather by CustomWeather, © 2015

See weather overviewHow to use our weather pages